www.pogodaiklimat.ru

Погода и климат >> Архив погоды >> Аргентина >> Лас-Ломитас


ПОГОДА в Лас-Ломитасе

  • Прогноз погоды в Лас-Ломитасе
  • Монитор погоды в Лас-Ломитасе

АРХИВ ПОГОДЫ в Лас-Ломитасе

Время (UTC), дата Ветер
(напр.,м/с)
 
Видим.   Явления Облачность Т
(С)
Тd
(С)
f
(%)
Тe
(С)
Тes
(С)
Комфортность P
(гПа)
Po
(гПа)
Тmin
(С)
Tmax
(С)
R
(мм)
R24
(мм)
S
(см)
09 17.03 штиль 0 20 км 6/6 300 м
[St]
+21.7 +20.6 93 +27 +27 душно 1008.7 993.7
12 17.03 штиль 0 20 км 10/10 300 м
[St]
+22.4 +21.2 93 +29 +29 очень
душно
1010.0 994.9 +21.7 +22.6 1
15 17.03 штиль 0 10 км дождь 10/0 750 м
[As op]
+23.4 +20.7 85 +31 +36 очень
душно
1010.5 995.4
18 17.03 Ю 3 20 км в посл. час дождь 10/10 300 м
[Frnb As trans]
+23.0 +21.5 91 +31 +31 очень
душно
1008.6 993.6 8
21 17.03 Ю 3 20 км 8/8 750 м
[Cu hum]
+24.0 +21.3 85 +30 +31 очень
душно
1007.2 992.2
00 18.03 Ю 3 20 км 5/5 300 м
[St]
+22.4 +20.6 90 +29 +29 очень
душно
1009.0 994.0 +22.4 +25.2
09 18.03 ЮЗ 1 20 км в посл. час морось 10/10 600 м
[St]
+21.2 +20.3 95 +26 +26 душно 1010.7 995.7
12 18.03 ЮЗ 1 20 км {морось} 8/8 1200 м
[Sc]
+21.4 +19.9 91 +26 +28 душно 1012.7 997.7 +20.5 +22.4 0.0
15 18.03 ЮЗ 1 20 км 10/10 900 м
[St]
+22.6 +19.5 83 +29 +29 очень
душно
1013.4 998.2
18 18.03 штиль 0 20 км 5/5 1050 м
[Cu hum]
+27.0 +19.4 63 +33 +42 очень
душно
1010.2 995.3
21 18.03 В 1 20 км 1/0
[Ci fib]
+28.0 +19.8 61 +34 +36 очень
душно
1008.0 993.2
00 19.03 штиль 0 20 км 3/0
[Ci fib]
+23.6 +20.6 83 +29 +29 душно 1009.1 994.1 +21.4 +28.5
09 19.03 штиль 0 20 км ясно +19.4 +18.4 94 +22 +22 комфорт 1009.4 994.4
12 19.03 Ю 2 20 км ясно +23.2 +20.5 85 +31 +35 очень
душно
1010.5 995.6 +19.4 +23.6
15 19.03 В 1 20 км 8/8 750 м
[Sc]
+27.5 +20.8 67 +34 +38 очень
душно
1010.9 996.0
18 19.03 В 1 20 км 10/10 1200 м
[St]
+27.4 +21.5 70 +35 +35 очень
душно
1009.5 994.5
21 19.03 В 1 20 км слаб. морось 10/10 600 м
[Frnb]
+26.2 +22.4 80 +34 +34 очень
душно
1010.2 995.2
00 20.03 Ю 1 20 км в посл. час морось 10/10 900 м
[St]
+25.4 +21.2 78 +32 +32 очень
душно
1010.1 995.2 +23.2 +27.5 0.0
09 20.03 ЮВ 1 20 км 9/9 450 м
[St]
+22.2 +20.4 90 +29 +29 очень
душно
1013.3 998.2
12 20.03 ЮВ 4 17 км слаб. морось 10/10 270 м
[Frnb]
+20.4 +18.5 89 +24 +24 комфорт 1016.6 1001.4 +20.4 +25.4 0.0
15 20.03 ЮВ 4 20 км в посл. час морось 10/10 300 м
[St]
+19.8 +16.9 83 +22 +22 комфорт 1017.7 1002.6
18 20.03 Ю 3 20 км {морось} 10/10 300 м
[St]
+19.6 +16.3 81 +22 +22 комфорт 1016.8 1001.7 0.0
21 20.03 Ю 3 20 км 9/9 900 м
[Sc]
+21.3 +17.3 78 +25 +25 комфорт 1015.3 1000.1
00 21.03 Ю 2 20 км 9/9 570 м
[St]
+20.6 +17.0 80 +25 +25 комфорт 1017.0 1001.8 +12.5 +21.3
09 21.03 ЮВ 1 20 км 4/0
[Ac trans]
+17.8 +12.5 71 +19 +19 1018.4 1003.2
12 21.03 ЮВ 1 20 км 4/0
[Ac trans]
+18.8 +14.0 74 +21 +25 комфорт 1019.3 1004.1 +17.0 +20.6
15 21.03 ЮВ 2 20 км 4/0
[Ac trans]
+24.6 +15.8 58 +28 +41 душно 1018.7 1003.6
18 21.03 ЮВ 1 20 км 8/5 1200 м
[Cu hum Ac trans]
+26.7 +14.9 48 +29 +34 жарко 1016.2 1001.0
21 21.03 ЮВ 2 20 км 4/4 1200 м
[Cu hum]
+26.4 +15.7 52 +30 +30 душно 1014.4 999.3
00 22.03 Ю 2 20 км ясно +22.0 +15.6 67 +26 +26 душно 1015.0 999.8 +18.8 +27.4
09 22.03 В 1 20 км 6/0
[Ac As]
+16.0 +13.5 85 +17 +17 1015.6 1000.5
12 22.03 В 1 20 км 3/0
[Ac trans]
+19.8 +13.6 67 +23 +27 комфорт 1017.0 1001.8 +16.0 +22.0
15 22.03 В 1 20 км 3/0
[Ac trans]
+25.8 +15.0 51 +29 +44 душно 1017.6 1002.5
18 22.03 ЮВ 1 20 км 4/4 1500 м
[Cu hum]
+28.4 +15.1 44 +31 +40 душно 1015.4 1000.4
21 22.03 ЮВ 1 20 км 1/1 1500 м
[Cu hum]
+28.2 +15.7 47 +31 +32 душно 1014.1 999.0
00 23.03 ЮВ 1 20 км ясно +23.0 +16.9 69 +28 +28 душно 1016.9 1001.7 +19.8 +29.0
09 23.03 ЮВ 1 20 км ясно +17.2 +14.1 82 +18 +18 1017.1 1002.0
12 23.03 ЮВ 1 20 км ясно +20.8 +15.1 70 +25 +30 комфорт 1017.3 1002.2 +17.0 +23.0
15 23.03 ЮВ 1 20 км 1/0
[Ac trans]
+27.8 +15.9 48 +31 +49 душно 1016.8 1001.8
18 23.03 штиль 0 20 км ясно +30.6 +16.0 41 +33 +52 опасность
солнечного
удара
1013.5 998.5
21 23.03 штиль 0 20 км ясно +30.4 +17.3 45 +34 +36 очень
душно
1012.0 997.2
00 24.03 штиль 0 20 км ясно +24.8 +17.9 65 +29 +29 душно 1013.0 998.0 +20.8 +31.5

 

Местоположение метеостанции Лас-Ломитас (Аргентина): широта -24.70 долгота -60.58 высота над уровнем моря 130 м.

В архиве по умолчанию представлена погода в Лас-Ломитасе за последнюю неделю. Архивные данные за месяц целиком и за предыдущие месяцы, начиная с января 2011 года, Вы можете получить, выбрав интересующий диапазон дат из раскрывающегося списка и нажав кнопку "Ввод!".


*Определитесь, кто Вы:
робот инопланетянин человек

Внимание! Время в таблицах - всемирное. Для получения местного времени необходимо прибавить поправку, которая равна -3 ч.

Смотрите также архив погоды в соседних городах и на ближайших метеорологических станциях:

Погода в Грал Бругуез (Парагвай) (177 км)
Погода в Посо Колорадо (Парагвай) (225 км)
Погода в Пресиденсиа-Роке-Саэнс-Пеньи (Аргентина) (226 км)
Погода в Пратс-Гиле (Парагвай) (241 км)
Погода в Формосе (Аргентина) (289 км)
Погода в Марискал-Эстигаре (Парагвай) (299 км)
Погода в Асунсьоне (Парагвай) (316 км)
Погода в Пиларе (Парагвай) (330 км)
Погода в Ресистенсии (Аргентина) (342 км)
Погода в Корриентесе (Аргентина) (356 км)

Пояснения к столбцам:

Ветер - указаны скорость ветра в м/с - средняя за 10 мин, порывы в срок и между сроками (в фигурных скобках) и направление, откуда дует ветер: С - северный, СВ - северо-восточный, В - восточный, ЮВ - юго-восточный, Ю - южный, ЮЗ - юго-западный, З - западный, СЗ - северо-западный.
Видимость - горизонтальная дальность видимости в метрах или километрах. При видимости от 1 до 10 км при отсутствии осадков обычно наблюдается дымка, при ухудшении видимости до 1 км и менее - туман. В сухую погоду видимость может ухудшаться дымом, пылью или мглою.
Явления - указаны атмосферные явления, наблюдавшиеся в срок или в последний час перед сроком; фигурными скобками обозначены явления, наблюдавшиеся между сроками (за 1-3 часа до срока); квадратными скобками обозначены град или гололедные отложения с указанием их диаметра в мм.
Облачность - указаны через наклонную черту общая и нижняя облачность в баллах и высота нижней границы облаков в метрах; квадратными скобками обозначены формы облаков: Ci - перистые, Cs - перисто-слоистые, Cc - перисто-кучевые, Ac - высококучевые, As - высокослоистые, Sc - слоисто-кучевые, Ns - слоисто-дождевые, Cu - кучевые, Cb - кучево-дождевые. Подробнее классификацию облаков см. в Атласе облаков (PDF).
T - Температура воздуха - температура, измеренная на высоте 2 м над землей.
Td - Температура точки росы - температура, при понижении до которой содержащийся в воздухе водяной пар достигнет насыщения.
f - Относительная влажность воздуха - влажноcть воздуха, измеренная на высоте 2 м над землей.
Te - Эффективная температура - температура, которую ощущает одетый по сезону человек в тени. Характеристика душности погоды. При расчете учитывается влияние влажности воздуха и скорости ветра на теплоощущения человека.
Tes - Эффективная температура на солнце - температура, которую ощущает человек, с поправкой на солнечный нагрев. Характеристика знойности погоды. Зависит от высоты солнца над горизонтом, облачности и скорости ветра. Ночью, в пасмурную погоду, а также при ветре 12 м/с и более поправка равна нулю.
P - Атмосферное давление - приведенное к уровню моря атмосферное давление.
Po - Атмосферное давление - измеренное на уровне метеостанции атмосферное давление.
Tmin - Минимальная температура - минимум температуры воздуха на высоте 2 м над землей.
Tmax - Максимальная температура - максимум температуры воздуха на высоте 2 м над землей.
R - Количество осадков - Количество выпавших осадков за период времени, мм. При наведении курсора мыши на число - период времени, за который выпало указанное количество осадков.
R24 - Количество осадков - Количество выпавших осадков за 24 часа, мм.
S - Снежный покров - Высота снежного покрова, см. При наведении курсора мыши на число - состояние снежного покрова и степень покрытия местности в баллах.